{"data":{"norad_id":62681,"intl_designator":"2025-009CA","name":"FLOCK 4G-17","alt_names":[],"object_type":"PAYLOAD","status":"ACTIVE","operator":null,"country":"US","launch_date":"2025-01-14","launch_site_code":"AFWTR","launch_vehicle":null,"mission":null,"orbit_class":"UNKNOWN","rcs_meters":null,"size_class":null,"mass_kg":null,"dimensions":null,"purposes":["earth_obs"],"wikipedia_slug":null,"has_3d_model":false,"image_url":null,"decayed_at":null,"tle_current":{"epoch":"2026-09-19T00:35:03.652512Z","epoch_age_seconds":142035,"freshness":"FRESH","line1":"1 62681U 25009CA  26262.02434783  .00007351  00000+0  24619-3 0  9998","line2":"2 62681  97.3859 342.9552 0004411  18.2787 341.8612 15.31229745150908","mean_motion":15.31229745,"eccentricity":0.0004411,"inclination_deg":97.3859,"raan_deg":342.9552,"arg_perigee_deg":18.2787,"mean_anomaly_deg":341.8612,"bstar":0.00024619,"rev_number":15090,"period_min":94.042060291873,"perigee_km":469.12050151739,"apogee_km":475.16381779203,"semimajor_km":6850.2791596547,"source":"CELESTRAK","updated_at":"2026-09-20T09:00:34.724033Z"}}}